sat.trackr.live / text

‹ back to catalog

SPOT 7

NORAD 40053 · 2014-034A

PAYLOAD ACTIVE UNKNOWN

§ Identity

Operator
Country
AZER
Launch date
2014-06-30
Launch site
SRILR
Launch vehicle
Mass (kg)
RCS (m²)
3.68

Purposes: earth_obs

External: N2YO · Heavens-Above · Gunter

§ Orbital elements

Epoch: 2026-09-10T04:11:26.138112Z

Period
98.56 min
Inclination
98.0558°
Eccentricity
0.0001269
Mean motion
14.61018349 rev/d
Perigee alt
689.0 km
Apogee alt
690.8 km
Semi-major
7,068.0 km
B*
8.2223e-5
RAAN
313.4431°
Arg perigee
75.8913°
Mean anomaly
284.2429°
Rev number
64,954

§ Raw data

SPOT 71 40053U 14034A   26253.17460808  .00000358  00000+0  82223-4 0  99922 40053  98.0558 313.4431 0001269  75.8913 284.2429 14.61018349649545

JSON: /api/v1/satellites/40053 · /tle

For live sub-satellite position, see the globe view (requires WebGL).

§ Visibility from observer

Set your observer location to see the next 7 days of passes ≥ 10°. The values pass through the URL so the page stays shareable.

No JS? Fill the form by hand. The geolocation button needs JavaScript.